Volver al catálogo

FENGYUN 1C DEB

ActivoPO
NORAD 30694·DEBRIS·🇨🇳 China

Lanzado May 10, 1999 desde Taiyuan Satellite Launch Center

Loading…

Próximos Pases (próximas 24 horas)

TLE

ActualizadoSource: Space-Track

Época: Sep 13, 2026, 17:32 UTC

1 30694U 99025ARC 26256.73115085  .00003439  00000-0  30547-3 0  9999
2 30694  99.0637 267.5954 0121410 137.0905 223.9861 14.91477125 41894

Sigue FENGYUN 1C DEB en tiempo real con AllMySat

Download on the App Store